BAW46EZ EGLL-LEMD

Flight info

Callsign BAW46EZ
Flight time 1h 51m
Altitude 31000
Route GOGSI N621 SAM M195 IBNID/N0484F330 M195 MARUK N621 LELNA DCT ERCOZ DCT NOVAN DCT DELOG N864 VADOX DCT SNR N864 NONTU
Aircraft B772/H-SDE2E3FGHIJ5LORVWXY/LB1D1

Departure

Time 2026-05-03 21:08
Airport London Heathrow Airport (EGLL)

Arrival

Time 2026-05-03 23:00
Airport Adolfo Suárez Madrid–Barajas Airport (LEMD)
Time Latitude Longitude Altitude Speed Heading
2026-05-03 20:20 51.47314 -0.48234 91 ft 0 kts 90°
2026-05-03 20:57 51.47314 -0.48238 91 ft 2 kts 90°
2026-05-03 20:57 51.47314 -0.48280 91 ft 4 kts 90°
2026-05-03 20:57 51.47314 -0.48318 91 ft 4 kts 97°
2026-05-03 20:58 51.47320 -0.48348 90 ft 4 kts 139°
2026-05-03 20:58 51.47339 -0.48362 91 ft 4 kts 178°
2026-05-03 20:58 51.47360 -0.48362 92 ft 0 kts 180°
2026-05-03 21:01 51.47347 -0.48362 94 ft 4 kts 180°
2026-05-03 21:01 51.47301 -0.48361 91 ft 10 kts 180°
2026-05-03 21:02 51.47213 -0.48361 91 ft 15 kts 180°
2026-05-03 21:02 51.47093 -0.48361 91 ft 19 kts 180°
2026-05-03 21:02 51.46968 -0.48359 91 ft 20 kts 179°
2026-05-03 21:02 51.46826 -0.48358 94 ft 18 kts 180°
2026-05-03 21:03 51.46749 -0.48300 95 ft 13 kts 108°
2026-05-03 21:03 51.46742 -0.48155 91 ft 13 kts 90°
2026-05-03 21:03 51.46742 -0.48004 91 ft 15 kts 89°
2026-05-03 21:03 51.46743 -0.47799 91 ft 22 kts 90°
2026-05-03 21:04 51.46743 -0.47529 91 ft 27 kts 89°
2026-05-03 21:04 51.46745 -0.47207 93 ft 30 kts 89°
2026-05-03 21:04 51.46746 -0.46856 95 ft 33 kts 89°
2026-05-03 21:04 51.46747 -0.46472 95 ft 36 kts 90°
2026-05-03 21:05 51.46747 -0.46054 95 ft 39 kts 90°
2026-05-03 21:05 51.46748 -0.45612 94 ft 40 kts 90°
2026-05-03 21:05 51.46749 -0.45193 93 ft 37 kts 89°
2026-05-03 21:05 51.46750 -0.44776 91 ft 38 kts 90°
2026-05-03 21:06 51.46752 -0.44370 91 ft 34 kts 89°
2026-05-03 21:06 51.46740 -0.44085 94 ft 17 kts 126°
2026-05-03 21:06 51.46632 -0.44058 91 ft 16 kts 179°
2026-05-03 21:06 51.46533 -0.44056 90 ft 12 kts 180°
2026-05-03 21:07 51.46500 -0.44083 94 ft 5 kts 229°
2026-05-03 21:07 51.46491 -0.44136 94 ft 5 kts 262°
2026-05-03 21:07 51.46489 -0.44216 91 ft 17 kts 270°
2026-05-03 21:07 51.46490 -0.44786 93 ft 94 kts 270°
2026-05-03 21:08 51.46487 -0.46290 99 ft 172 kts 270°
2026-05-03 21:08 51.46492 -0.48425 629 ft 204 kts 270°
2026-05-03 21:08 51.46471 -0.50606 1993 ft 187 kts 269°
2026-05-03 21:08 51.46431 -0.52799 2622 ft 208 kts 268°
2026-05-03 21:09 51.46382 -0.55247 2824 ft 230 kts 268°
2026-05-03 21:09 51.46327 -0.57948 3084 ft 251 kts 268°
2026-05-03 21:09 51.46269 -0.60800 3624 ft 260 kts 268°
2026-05-03 21:09 51.46159 -0.63716 4251 ft 262 kts 261°
2026-05-03 21:10 51.45797 -0.66567 4771 ft 265 kts 257°
2026-05-03 21:10 51.45457 -0.69494 5270 ft 269 kts 261°
2026-05-03 21:10 51.45281 -0.72476 5855 ft 269 kts 268°
2026-05-03 21:10 51.45292 -0.75514 6005 ft 275 kts 270°
2026-05-03 21:11 51.45320 -0.78555 6013 ft 272 kts 269°
2026-05-03 21:11 51.45316 -0.81599 6171 ft 271 kts 265°
2026-05-03 21:11 51.44792 -0.84479 6642 ft 273 kts 233°
2026-05-03 21:11 51.43344 -0.86350 7329 ft 270 kts 200°
2026-05-03 21:12 51.41513 -0.86967 7947 ft 270 kts 185°
2026-05-03 21:12 51.39676 -0.87577 8317 ft 275 kts 208°
2026-05-03 21:12 51.38168 -0.89481 8811 ft 275 kts 222°
2026-05-03 21:12 51.36730 -0.91516 9247 ft 279 kts 218°
2026-05-03 21:13 51.35175 -0.93397 9873 ft 281 kts 215°
2026-05-03 21:13 51.33557 -0.95212 10337 ft 290 kts 214°
2026-05-03 21:13 51.31829 -0.97111 10492 ft 312 kts 214°
2026-05-03 21:13 51.29974 -0.99146 10666 ft 334 kts 214°
2026-05-03 21:14 51.28004 -1.01282 10773 ft 348 kts 213°
2026-05-03 21:14 51.25947 -1.03424 10910 ft 357 kts 212°
2026-05-03 21:14 51.23833 -1.05588 11122 ft 363 kts 212°
2026-05-03 21:14 51.21696 -1.07768 11460 ft 366 kts 212°
2026-05-03 21:15 51.19579 -1.09930 11845 ft 367 kts 212°
2026-05-03 21:15 51.17432 -1.12128 12305 ft 368 kts 212°
2026-05-03 21:15 51.15272 -1.14345 12761 ft 369 kts 212°
2026-05-03 21:15 51.13107 -1.16568 13194 ft 371 kts 212°
2026-05-03 21:16 51.10930 -1.18801 13613 ft 374 kts 212°
2026-05-03 21:16 51.08734 -1.21051 14007 ft 376 kts 212°
2026-05-03 21:16 51.06526 -1.23306 14407 ft 377 kts 212°
2026-05-03 21:16 51.04313 -1.25557 14779 ft 379 kts 212°
2026-05-03 21:17 51.02086 -1.27817 15143 ft 381 kts 212°
2026-05-03 21:17 51.00602 -1.29324 15389 ft 382 kts 212°
2026-05-03 21:17 50.97600 -1.32369 15869 ft 384 kts 212°
2026-05-03 21:17 50.95333 -1.34665 16239 ft 387 kts 212°
2026-05-03 21:18 50.93076 -1.36986 16638 ft 388 kts 213°
2026-05-03 21:18 50.90817 -1.39340 16977 ft 389 kts 213°
2026-05-03 21:18 50.88552 -1.41715 17327 ft 391 kts 213°
2026-05-03 21:18 50.86286 -1.44090 17665 ft 392 kts 213°
2026-05-03 21:19 50.84003 -1.46478 18005 ft 394 kts 213°
2026-05-03 21:19 50.81707 -1.48872 18319 ft 395 kts 213°
2026-05-03 21:19 50.79411 -1.51260 18611 ft 396 kts 213°
2026-05-03 21:19 50.77103 -1.53656 18923 ft 397 kts 213°
2026-05-03 21:20 50.74800 -1.56043 19239 ft 397 kts 213°
2026-05-03 21:20 50.72512 -1.58410 19526 ft 398 kts 213°
2026-05-03 21:20 50.70188 -1.60812 19779 ft 400 kts 213°
2026-05-03 21:20 50.67861 -1.63216 20043 ft 401 kts 213°
2026-05-03 21:21 50.65530 -1.65620 20348 ft 401 kts 213°
2026-05-03 21:21 50.63190 -1.68030 20629 ft 402 kts 213°
2026-05-03 21:21 50.60844 -1.70444 20875 ft 402 kts 213°
2026-05-03 21:21 50.58499 -1.72855 21107 ft 403 kts 213°
2026-05-03 21:22 50.56141 -1.75277 21329 ft 404 kts 213°
2026-05-03 21:22 50.53780 -1.77696 21549 ft 405 kts 213°
2026-05-03 21:22 50.51419 -1.80110 21755 ft 406 kts 213°
2026-05-03 21:22 50.49045 -1.82524 21952 ft 406 kts 212°
2026-05-03 21:23 50.46664 -1.84937 22135 ft 407 kts 212°
2026-05-03 21:23 50.44285 -1.87346 22315 ft 408 kts 212°
2026-05-03 21:23 50.42707 -1.88943 22431 ft 408 kts 212°
2026-05-03 21:23 50.40317 -1.91360 22588 ft 409 kts 212°
2026-05-03 21:24 50.37928 -1.93775 22751 ft 409 kts 212°
2026-05-03 21:24 50.35533 -1.96194 22899 ft 410 kts 212°
2026-05-03 21:24 50.32360 -1.99395 23082 ft 410 kts 212°
2026-05-03 21:24 50.30735 -2.01033 23178 ft 410 kts 212°
2026-05-03 21:25 50.28334 -2.03439 23305 ft 410 kts 211°
2026-05-03 21:25 50.25764 -2.05456 23560 ft 416 kts 201°
2026-05-03 21:25 50.23043 -2.06851 24171 ft 417 kts 196°
2026-05-03 21:25 50.20225 -2.07862 24760 ft 417 kts 191°
2026-05-03 21:26 50.17316 -2.08434 25220 ft 422 kts 186°
2026-05-03 21:26 50.14362 -2.08758 25646 ft 426 kts 185°
2026-05-03 21:26 50.11387 -2.09019 26108 ft 429 kts 185°
2026-05-03 21:26 50.08397 -2.09329 26568 ft 431 kts 186°
2026-05-03 21:27 50.05393 -2.09709 27019 ft 433 kts 186°
2026-05-03 21:27 50.02382 -2.10151 27436 ft 435 kts 188°
2026-05-03 21:27 49.99402 -2.10877 27725 ft 431 kts 192°
2026-05-03 21:27 49.96529 -2.12109 27699 ft 430 kts 202°
2026-05-03 21:28 49.93919 -2.14339 27883 ft 438 kts 215°
2026-05-03 21:28 49.91520 -2.17194 28002 ft 433 kts 217°
2026-05-03 21:28 49.86617 -2.22475 28000 ft 427 kts 210°
2026-05-03 21:29 49.84002 -2.24753 28107 ft 435 kts 208°
2026-05-03 21:29 49.81322 -2.26997 28313 ft 440 kts 208°
2026-05-03 21:29 49.78627 -2.29282 28658 ft 442 kts 208°
2026-05-03 21:29 49.75948 -2.31621 29025 ft 443 kts 209°
2026-05-03 21:30 49.73275 -2.34025 29376 ft 444 kts 210°
2026-05-03 21:30 49.70611 -2.36472 29764 ft 444 kts 210°
2026-05-03 21:30 49.67965 -2.38934 30185 ft 443 kts 210°
2026-05-03 21:30 49.65335 -2.41391 30527 ft 442 kts 210°
2026-05-03 21:31 49.62699 -2.43852 30832 ft 443 kts 210°
2026-05-03 21:31 49.60087 -2.46285 30882 ft 446 kts 210°
2026-05-03 21:31 49.54770 -2.51214 31042 ft 447 kts 210°
2026-05-03 21:32 49.52107 -2.53672 31307 ft 447 kts 210°
2026-05-03 21:32 49.49402 -2.56165 31634 ft 446 kts 210°
2026-05-03 21:32 49.46773 -2.58583 31928 ft 446 kts 210°
2026-05-03 21:32 49.44108 -2.61031 32180 ft 446 kts 210°
2026-05-03 21:33 49.41441 -2.63478 32444 ft 446 kts 210°
2026-05-03 21:33 49.38772 -2.65924 32699 ft 446 kts 210°
2026-05-03 21:33 49.36106 -2.68364 32979 ft 446 kts 210°
2026-05-03 21:33 49.33435 -2.70807 33245 ft 446 kts 210°
2026-05-03 21:34 49.30762 -2.73248 33513 ft 446 kts 210°
2026-05-03 21:34 49.28127 -2.75651 33773 ft 447 kts 210°
2026-05-03 21:34 49.25456 -2.78085 34030 ft 447 kts 210°
2026-05-03 21:34 49.22780 -2.80519 34229 ft 447 kts 210°
2026-05-03 21:35 49.20102 -2.82953 34410 ft 448 kts 210°
2026-05-03 21:35 49.17417 -2.85389 34608 ft 449 kts 210°
2026-05-03 21:35 49.14727 -2.87827 34806 ft 450 kts 210°
2026-05-03 21:35 49.12029 -2.90269 34997 ft 450 kts 210°
2026-05-03 21:36 49.09335 -2.92704 35196 ft 451 kts 210°
2026-05-03 21:36 49.06624 -2.95152 35412 ft 451 kts 210°
2026-05-03 21:36 49.03924 -2.97586 35615 ft 452 kts 210°
2026-05-03 21:36 49.01218 -3.00024 35796 ft 453 kts 210°
2026-05-03 21:37 48.98500 -3.02468 35961 ft 454 kts 210°
2026-05-03 21:37 48.95771 -3.04920 36156 ft 454 kts 210°
2026-05-03 21:37 48.93049 -3.07362 36364 ft 454 kts 210°
2026-05-03 21:37 48.90328 -3.09800 36540 ft 455 kts 210°
2026-05-03 21:38 48.87594 -3.12246 36699 ft 456 kts 210°
2026-05-03 21:38 48.84851 -3.14698 36871 ft 457 kts 210°
2026-05-03 21:38 48.82109 -3.17146 37043 ft 458 kts 210°
2026-05-03 21:38 48.79398 -3.19562 37214 ft 459 kts 210°
2026-05-03 21:39 48.73852 -3.24497 37341 ft 464 kts 210°
2026-05-03 21:39 48.71072 -3.26966 37533 ft 463 kts 210°
2026-05-03 21:39 48.68286 -3.29437 37694 ft 464 kts 210°
2026-05-03 21:40 48.65494 -3.31909 37814 ft 465 kts 210°
2026-05-03 21:40 48.62702 -3.34378 37979 ft 465 kts 210°
2026-05-03 21:40 48.59902 -3.36852 38130 ft 466 kts 210°
2026-05-03 21:40 48.57107 -3.39318 38289 ft 466 kts 210°
2026-05-03 21:41 48.54303 -3.41790 38423 ft 467 kts 210°
2026-05-03 21:41 48.51500 -3.44256 38540 ft 467 kts 210°
2026-05-03 21:41 48.48680 -3.46735 38666 ft 468 kts 210°
2026-05-03 21:41 48.45862 -3.49209 38782 ft 468 kts 210°
2026-05-03 21:42 48.40233 -3.54143 38891 ft 468 kts 210°
2026-05-03 21:42 48.34532 -3.58580 38956 ft 463 kts 200°
2026-05-03 21:43 48.28206 -3.60581 38970 ft 468 kts 185°
2026-05-03 21:43 48.21665 -3.60596 38969 ft 472 kts 180°
2026-05-03 21:44 48.15118 -3.60662 38974 ft 471 kts 184°
2026-05-03 21:44 48.08553 -3.61222 38965 ft 474 kts 185°
2026-05-03 21:45 48.01944 -3.61738 38966 ft 476 kts 184°
2026-05-03 21:45 47.95299 -3.62115 38966 ft 478 kts 183°
2026-05-03 21:46 47.88647 -3.62429 38964 ft 478 kts 183°
2026-05-03 21:46 47.82036 -3.62737 38966 ft 477 kts 184°
2026-05-03 21:47 47.75416 -3.63056 38964 ft 475 kts 184°
2026-05-03 21:47 47.68815 -3.63381 38961 ft 474 kts 184°
2026-05-03 21:48 47.62239 -3.63704 38962 ft 472 kts 184°
2026-05-03 21:48 47.55693 -3.64024 38961 ft 470 kts 184°
2026-05-03 21:49 47.49155 -3.64342 38963 ft 469 kts 184°
2026-05-03 21:49 47.42637 -3.64658 38963 ft 468 kts 184°
2026-05-03 21:50 47.36159 -3.64971 38965 ft 467 kts 184°
2026-05-03 21:50 47.29648 -3.65286 38965 ft 467 kts 184°
2026-05-03 21:51 47.23151 -3.65598 38968 ft 466 kts 184°
2026-05-03 21:51 47.16669 -3.65910 38971 ft 466 kts 184°
2026-05-03 21:52 47.10221 -3.66218 38972 ft 466 kts 184°
2026-05-03 21:52 47.03733 -3.66529 38968 ft 466 kts 184°
2026-05-03 21:53 46.97246 -3.66839 38971 ft 466 kts 184°
2026-05-03 21:53 46.90754 -3.67147 38972 ft 465 kts 184°
2026-05-03 21:54 46.84279 -3.67454 38975 ft 465 kts 184°
2026-05-03 21:54 46.77811 -3.67761 38973 ft 464 kts 184°
2026-05-03 21:55 46.71393 -3.68064 38975 ft 464 kts 184°
2026-05-03 21:55 46.64938 -3.68368 38975 ft 463 kts 184°
2026-05-03 21:56 46.58496 -3.68671 38980 ft 462 kts 184°
2026-05-03 21:56 46.52064 -3.68973 38982 ft 462 kts 184°
2026-05-03 21:57 46.45645 -3.69273 38977 ft 461 kts 184°
2026-05-03 21:57 46.39231 -3.69572 38982 ft 461 kts 184°
2026-05-03 21:58 46.32823 -3.69874 38977 ft 459 kts 185°
2026-05-03 21:58 46.26542 -3.70759 38976 ft 454 kts 189°
2026-05-03 21:59 46.20298 -3.71920 38986 ft 455 kts 189°
2026-05-03 21:59 46.13979 -3.72827 38985 ft 457 kts 187°
2026-05-03 22:00 46.07638 -3.73639 38987 ft 458 kts 187°
2026-05-03 22:00 46.01273 -3.74517 38989 ft 459 kts 188°
2026-05-03 22:01 45.94926 -3.75448 38987 ft 459 kts 188°
2026-05-03 22:01 45.88559 -3.76398 38987 ft 459 kts 188°
2026-05-03 22:02 45.82200 -3.77344 38990 ft 459 kts 188°
2026-05-03 22:02 45.75837 -3.78283 38991 ft 459 kts 188°
2026-05-03 22:03 45.69514 -3.79211 38994 ft 459 kts 188°
2026-05-03 22:03 45.63158 -3.80143 38991 ft 459 kts 188°
2026-05-03 22:04 45.56793 -3.81074 38991 ft 459 kts 188°
2026-05-03 22:04 45.50443 -3.82002 38988 ft 459 kts 188°
2026-05-03 22:05 45.44086 -3.82928 38995 ft 459 kts 188°
2026-05-03 22:05 45.37729 -3.83852 38995 ft 459 kts 188°
2026-05-03 22:06 45.31386 -3.84772 38990 ft 458 kts 188°
2026-05-03 22:06 45.25086 -3.85684 38992 ft 458 kts 188°
2026-05-03 22:07 45.18747 -3.86600 38984 ft 458 kts 188°
2026-05-03 22:07 45.12399 -3.87514 38994 ft 457 kts 188°
2026-05-03 22:08 45.06071 -3.88424 38996 ft 457 kts 188°
2026-05-03 22:08 44.99767 -3.89328 38996 ft 457 kts 188°
2026-05-03 22:09 44.93445 -3.90233 38992 ft 457 kts 188°
2026-05-03 22:10 44.83937 -3.91590 38999 ft 457 kts 188°
2026-05-03 22:10 44.78677 -3.92339 39000 ft 457 kts 188°
2026-05-03 22:11 44.72342 -3.93239 38996 ft 457 kts 188°
2026-05-03 22:11 44.64971 -3.94283 38997 ft 457 kts 188°
2026-05-03 22:12 44.59661 -3.95034 38994 ft 457 kts 188°
2026-05-03 22:12 44.53365 -3.95923 38999 ft 457 kts 188°
2026-05-03 22:13 44.47036 -3.96815 38995 ft 457 kts 188°
2026-05-03 22:13 44.40701 -3.97706 38999 ft 457 kts 188°
2026-05-03 22:14 44.34373 -3.98576 38997 ft 457 kts 187°
2026-05-03 22:14 44.28003 -3.98715 39000 ft 459 kts 180°
2026-05-03 22:15 44.21628 -3.97926 38994 ft 460 kts 178°
2026-05-03 22:15 44.15247 -3.97084 39001 ft 460 kts 179°
2026-05-03 22:16 44.08859 -3.96402 38997 ft 460 kts 180°
2026-05-03 22:16 44.02464 -3.95794 38998 ft 461 kts 180°
2026-05-03 22:17 43.96067 -3.95184 38998 ft 461 kts 180°
2026-05-03 22:17 43.89662 -3.94561 39002 ft 461 kts 180°
2026-05-03 22:18 43.83297 -3.93940 38996 ft 462 kts 180°
2026-05-03 22:18 43.76893 -3.93318 38997 ft 462 kts 180°
2026-05-03 22:19 43.70474 -3.92691 39004 ft 462 kts 180°
2026-05-03 22:19 43.64060 -3.92061 39015 ft 462 kts 180°
2026-05-03 22:20 43.57663 -3.91434 39015 ft 461 kts 180°
2026-05-03 22:20 43.51251 -3.90808 39020 ft 461 kts 180°
2026-05-03 22:21 43.44843 -3.90280 39015 ft 459 kts 183°
2026-05-03 22:21 43.38538 -3.90724 39013 ft 454 kts 191°
2026-05-03 22:22 43.32283 -3.91899 39020 ft 453 kts 192°
2026-05-03 22:22 43.26021 -3.93026 39017 ft 454 kts 191°
2026-05-03 22:23 43.19727 -3.93993 39007 ft 455 kts 190°
2026-05-03 22:23 43.13424 -3.94905 39010 ft 455 kts 190°
2026-05-03 22:24 43.07126 -3.95827 38991 ft 455 kts 190°
2026-05-03 22:24 43.00834 -3.96758 38994 ft 455 kts 190°
2026-05-03 22:25 42.94581 -3.97679 38995 ft 454 kts 190°
2026-05-03 22:25 42.88288 -3.98601 38992 ft 454 kts 190°
2026-05-03 22:26 42.81993 -3.99520 38977 ft 455 kts 190°
2026-05-03 22:26 42.75707 -4.00437 38980 ft 454 kts 190°
2026-05-03 22:27 42.69417 -4.01354 38975 ft 454 kts 190°
2026-05-03 22:27 42.63115 -4.02270 38979 ft 455 kts 190°
2026-05-03 22:28 42.56853 -4.03179 38969 ft 455 kts 191°
2026-05-03 22:28 42.50560 -4.04085 38965 ft 455 kts 191°
2026-05-03 22:29 42.44255 -4.04989 38969 ft 455 kts 191°
2026-05-03 22:29 42.37944 -4.05893 38980 ft 455 kts 191°
2026-05-03 22:30 42.31679 -4.06790 38972 ft 456 kts 191°
2026-05-03 22:30 42.25359 -4.07692 38951 ft 456 kts 191°
2026-05-03 22:31 42.19036 -4.08593 38961 ft 456 kts 191°
2026-05-03 22:31 42.12717 -4.09492 38962 ft 457 kts 191°
2026-05-03 22:32 42.06404 -4.10389 38977 ft 457 kts 191°
2026-05-03 22:32 42.00069 -4.11259 38975 ft 457 kts 190°
2026-05-03 22:33 41.93721 -4.11983 38971 ft 458 kts 189°
2026-05-03 22:33 41.87363 -4.12673 38974 ft 458 kts 189°
2026-05-03 22:34 41.80998 -4.13384 38974 ft 458 kts 190°
2026-05-03 22:34 41.74654 -4.14106 38974 ft 458 kts 190°
2026-05-03 22:35 41.68353 -4.14824 38977 ft 457 kts 190°
2026-05-03 22:35 41.62005 -4.15543 38977 ft 457 kts 190°
2026-05-03 22:36 41.55660 -4.16261 38981 ft 457 kts 190°
2026-05-03 22:36 41.49335 -4.16974 38989 ft 456 kts 190°
2026-05-03 22:37 41.42998 -4.17689 38566 ft 462 kts 191°
2026-05-03 22:37 41.39801 -4.18046 37847 ft 449 kts 191°
2026-05-03 22:37 41.36798 -4.18371 37239 ft 428 kts 191°
2026-05-03 22:37 41.33864 -4.18694 36624 ft 408 kts 192°
2026-05-03 22:38 41.31122 -4.19003 36061 ft 396 kts 192°
2026-05-03 22:38 41.28323 -4.19329 35463 ft 406 kts 192°
2026-05-03 22:38 41.25469 -4.19660 34805 ft 428 kts 191°
2026-05-03 22:38 41.22398 -4.19918 34059 ft 440 kts 190°
2026-05-03 22:39 41.19331 -4.20094 33180 ft 442 kts 189°
2026-05-03 22:39 41.16292 -4.20236 32338 ft 442 kts 189°
2026-05-03 22:39 41.13206 -4.20382 31482 ft 443 kts 189°
2026-05-03 22:39 41.10123 -4.20543 30613 ft 444 kts 189°
2026-05-03 22:40 41.07038 -4.20718 29868 ft 442 kts 189°
2026-05-03 22:40 41.03976 -4.20901 29090 ft 440 kts 189°
2026-05-03 22:40 41.00931 -4.21087 28392 ft 436 kts 189°
2026-05-03 22:40 40.97912 -4.21273 27706 ft 433 kts 188°
2026-05-03 22:41 40.94918 -4.21457 27035 ft 429 kts 188°
2026-05-03 22:41 40.91939 -4.21639 26351 ft 426 kts 188°
2026-05-03 22:41 40.88986 -4.21818 25686 ft 423 kts 188°
2026-05-03 22:41 40.86046 -4.21995 25037 ft 421 kts 188°
2026-05-03 22:42 40.83132 -4.22172 24513 ft 418 kts 187°
2026-05-03 22:42 40.80229 -4.22352 23775 ft 419 kts 186°
2026-05-03 22:42 40.77309 -4.22532 23002 ft 418 kts 186°
2026-05-03 22:42 40.74407 -4.22706 22285 ft 416 kts 186°
2026-05-03 22:43 40.71531 -4.22875 21621 ft 413 kts 186°
2026-05-03 22:43 40.68671 -4.23043 20955 ft 409 kts 186°
2026-05-03 22:43 40.65839 -4.23211 20324 ft 406 kts 186°
2026-05-03 22:43 40.63059 -4.23377 19705 ft 404 kts 186°
2026-05-03 22:44 40.60258 -4.23544 19078 ft 402 kts 186°
2026-05-03 22:44 40.57468 -4.23712 18454 ft 401 kts 186°
2026-05-03 22:44 40.54680 -4.23879 17769 ft 401 kts 186°
2026-05-03 22:44 40.51945 -4.23798 17075 ft 388 kts 174°
2026-05-03 22:45 40.49408 -4.22607 16570 ft 383 kts 159°
2026-05-03 22:45 40.47053 -4.21094 15983 ft 369 kts 159°
2026-05-03 22:45 40.44740 -4.19792 15492 ft 359 kts 163°
2026-05-03 22:45 40.42365 -4.18680 14989 ft 367 kts 165°
2026-05-03 22:46 40.39926 -4.17534 14467 ft 375 kts 163°
2026-05-03 22:46 40.37497 -4.16324 13906 ft 371 kts 161°
2026-05-03 22:46 40.35281 -4.14697 13297 ft 368 kts 142°
2026-05-03 22:46 40.33722 -4.12016 12827 ft 374 kts 121°
2026-05-03 22:47 40.32767 -4.08837 12360 ft 375 kts 111°
2026-05-03 22:47 40.32028 -4.05587 11850 ft 364 kts 109°
2026-05-03 22:47 40.31339 -4.02461 11369 ft 352 kts 110°
2026-05-03 22:47 40.30602 -3.99444 10945 ft 345 kts 112°
2026-05-03 22:48 40.29835 -3.96510 10825 ft 335 kts 112°
2026-05-03 22:48 40.29087 -3.93669 10674 ft 325 kts 112°
2026-05-03 22:48 40.28378 -3.90943 10540 ft 315 kts 112°
2026-05-03 22:48 40.27690 -3.88265 10406 ft 305 kts 112°
2026-05-03 22:49 40.27028 -3.85665 10272 ft 296 kts 112°
2026-05-03 22:49 40.26390 -3.83149 10164 ft 286 kts 112°
2026-05-03 22:49 40.25774 -3.80714 10033 ft 277 kts 113°
2026-05-03 22:49 40.25171 -3.78336 9750 ft 274 kts 113°
2026-05-03 22:50 40.24572 -3.75978 9459 ft 272 kts 112°
2026-05-03 22:50 40.23978 -3.73641 9139 ft 269 kts 112°
2026-05-03 22:50 40.23388 -3.71321 8851 ft 268 kts 112°
2026-05-03 22:50 40.22791 -3.68981 8567 ft 274 kts 112°
2026-05-03 22:51 40.22181 -3.66591 8284 ft 280 kts 112°
2026-05-03 22:51 40.21567 -3.64176 7964 ft 279 kts 111°
2026-05-03 22:51 40.20956 -3.61775 7660 ft 277 kts 111°
2026-05-03 22:51 40.20349 -3.59395 7360 ft 275 kts 111°
2026-05-03 22:52 40.19744 -3.57024 7058 ft 273 kts 111°
2026-05-03 22:52 40.19151 -3.54706 6757 ft 272 kts 111°
2026-05-03 22:52 40.18550 -3.52362 6461 ft 271 kts 111°
2026-05-03 22:52 40.17954 -3.50035 6211 ft 267 kts 111°
2026-05-03 22:53 40.17474 -3.47744 6061 ft 256 kts 96°
2026-05-03 22:53 40.17781 -3.45480 5826 ft 260 kts 60°
2026-05-03 22:53 40.18941 -3.43665 5529 ft 262 kts 40°
2026-05-03 22:53 40.20332 -3.42086 5179 ft 267 kts 39°
2026-05-03 22:54 40.21806 -3.40604 4802 ft 269 kts 31°
2026-05-03 22:54 40.23423 -3.39364 4408 ft 270 kts 26°
2026-05-03 22:54 40.25116 -3.38403 4032 ft 260 kts
2026-05-03 22:54 40.26872 -3.38481 4091 ft 255 kts 350°
2026-05-03 22:55 40.28640 -3.38786 4019 ft 252 kts 353°
2026-05-03 22:55 40.30276 -3.39176 3989 ft 225 kts 339°
2026-05-03 22:55 40.31561 -3.40166 4074 ft 212 kts 320°
2026-05-03 22:55 40.32661 -3.41418 4031 ft 209 kts 319°
2026-05-03 22:56 40.33784 -3.42639 4030 ft 210 kts 320°
2026-05-03 22:56 40.34919 -3.43816 4034 ft 208 kts 319°
2026-05-03 22:56 40.36017 -3.45025 4026 ft 204 kts 315°
2026-05-03 22:56 40.37087 -3.46133 4018 ft 187 kts 318°
2026-05-03 22:57 40.38106 -3.47100 4008 ft 175 kts 317°
2026-05-03 22:57 40.39061 -3.48043 3770 ft 169 kts 317°
2026-05-03 22:57 40.39974 -3.48966 3556 ft 163 kts 316°
2026-05-03 22:57 40.40875 -3.49879 3362 ft 163 kts 316°
2026-05-03 22:58 40.41471 -3.50484 3223 ft 164 kts 317°
2026-05-03 22:58 40.42382 -3.51409 2967 ft 167 kts 319°
2026-05-03 22:58 40.43296 -3.52336 2747 ft 162 kts 319°
2026-05-03 22:58 40.44160 -3.53213 2510 ft 154 kts 319°
2026-05-03 22:59 40.45004 -3.54068 2317 ft 152 kts 321°
2026-05-03 22:59 40.45845 -3.54921 2107 ft 153 kts 322°
2026-05-03 22:59 40.46688 -3.55769 2006 ft 152 kts 321°
2026-05-03 22:59 40.47427 -3.56537 1987 ft 90 kts 322°
2026-05-03 23:00 40.47821 -3.56925 1988 ft 63 kts 323°
2026-05-03 23:00 40.48039 -3.57144 1987 ft 34 kts 322°
2026-05-03 23:00 40.48199 -3.57308 1989 ft 26 kts 322°
2026-05-03 23:00 40.48299 -3.57440 1987 ft 15 kts 297°
2026-05-03 23:01 40.48342 -3.57560 1987 ft 15 kts 294°
2026-05-03 23:01 40.48344 -3.57657 1988 ft 7 kts 234°
2026-05-03 23:01 40.48346 -3.57718 1987 ft 8 kts 298°
2026-05-03 23:01 40.48385 -3.57767 1987 ft 8 kts 324°
2026-05-03 23:02 40.48425 -3.57803 1987 ft 7 kts 326°
2026-05-03 23:02 40.48466 -3.57836 1987 ft 7 kts 329°
2026-05-03 23:02 40.48504 -3.57872 1987 ft 7 kts 310°
2026-05-03 23:02 40.48515 -3.57931 1987 ft 7 kts 270°
2026-05-03 23:03 40.48515 -3.57994 1985 ft 7 kts 271°
2026-05-03 23:03 40.48515 -3.58056 1985 ft 7 kts 269°
2026-05-03 23:03 40.48514 -3.58119 1985 ft 7 kts 269°
2026-05-03 23:03 40.48513 -3.58183 1985 ft 8 kts 269°
2026-05-03 23:04 40.48513 -3.58257 1985 ft 8 kts 270°
2026-05-03 23:04 40.48513 -3.58333 1985 ft 8 kts 270°
2026-05-03 23:04 40.48512 -3.58409 1986 ft 8 kts 270°
2026-05-03 23:04 40.48513 -3.58486 1985 ft 8 kts 270°
2026-05-03 23:05 40.48519 -3.58567 1987 ft 9 kts 270°
2026-05-03 23:05 40.48515 -3.58649 1987 ft 9 kts 261°
2026-05-03 23:05 40.48515 -3.58732 1986 ft 9 kts 269°
2026-05-03 23:05 40.48529 -3.58808 1987 ft 8 kts 307°
2026-05-03 23:06 40.48578 -3.58827 1986 ft 5 kts 357°
2026-05-03 23:06 40.48606 -3.58832 1986 ft 4 kts 343°
2026-05-03 23:06 40.48621 -3.58856 1989 ft 3 kts 289°
2026-05-03 23:06 40.48619 -3.58878 1988 ft 2 kts 261°
2026-05-03 23:07 40.48617 -3.58900 1987 ft 2 kts 267°
2026-05-03 23:07 40.48617 -3.58923 1988 ft 2 kts 270°
2026-05-03 23:07 40.48617 -3.58945 1988 ft 2 kts 270°
2026-05-03 23:07 40.48617 -3.58968 1985 ft 2 kts 269°
2026-05-03 23:08 40.48617 -3.58985 1987 ft 1 kts 269°
2026-05-03 23:08 40.48617 -3.58988 1987 ft 0 kts 269°